| time (UTC) | temp C | wind direction | speed KPH | gust KPH | rain 1hr cm | rain 24hr cm | rain mn cm | humidity % | barometer mb |
| 20260508025403 | 17 | 174 | 0.0 | 1.6 | 0.00 | 0.00 | 0.00 | 71 | 1012.7 |
| 20260508024503 | 17 | 0 | 0.0 | 0.0 | 0.00 | 0.00 | 0.00 | 71 | 1012.9 |
| 20260508023603 | 17 | 0 | 0.0 | 0.0 | 0.00 | 0.00 | 0.00 | 70 | 1012.7 |
| 20260508022703 | 17 | 0 | 0.0 | 0.0 | 0.00 | 0.00 | 0.00 | 71 | 1012.7 |
| 20260508021803 | 18 | 0 | 0.0 | 0.0 | 0.00 | 0.00 | 0.00 | 69 | 1012.8 |
| 20260508020903 | 18 | 174 | 0.0 | 1.6 | 0.00 | 0.00 | 0.00 | 69 | 1012.6 |
| 20260508020004 | 18 | 175 | 0.0 | 3.2 | 0.00 | 0.00 | 0.00 | 69 | 1013.0 |
| 20260508015425 | 18 | 175 | 0.0 | 3.2 | 0.00 | 0.00 | 0.00 | 69 | 1012.8 |
| 20260508014524 | 18 | 175 | 1.6 | 3.2 | 0.00 | 0.00 | 0.00 | 69 | 1013.1 |
| 20260508013603 | 18 | 175 | 0.0 | 1.6 | 0.00 | 0.00 | 0.00 | 68 | 1012.8 |
| 20260508012703 | 18 | 174 | 0.0 | 1.6 | 0.00 | 0.00 | 0.00 | 67 | 1012.9 |
| 20260508011803 | 18 | 174 | 0.0 | 1.6 | 0.00 | 0.00 | 0.00 | 66 | 1012.9 |
| 20260508010903 | 18 | 174 | 0.0 | 3.2 | 0.00 | 0.00 | 0.00 | 65 | 1012.8 |
| 20260508010004 | 18 | 174 | 0.0 | 3.2 | 0.00 | 0.00 | 0.00 | 65 | 1012.7 |
| 20260508005405 | 18 | 174 | 1.6 | 4.8 | 0.00 | 0.00 | 0.00 | 65 | 1012.8 |
| 20260508004504 | 19 | 174 | 1.6 | 4.8 | 0.00 | 0.00 | 0.00 | 65 | 1013.0 |
| 20260508003625 | 19 | 174 | 1.6 | 3.2 | 0.00 | 0.00 | 0.00 | 65 | 1012.9 |
| 20260508002704 | 19 | 168 | 1.6 | 4.8 | 0.00 | 0.00 | 0.00 | 64 | 1013.0 |
| 20260508001825 | 19 | 167 | 1.6 | 4.8 | 0.00 | 0.00 | 0.00 | 62 | 1013.0 |
| 20260508000905 | 19 | 166 | 1.6 | 6.4 | 0.00 | 0.00 | 0.00 | 62 | 1013.1 |
| 20260508000005 | 19 | 168 | 1.6 | 6.4 | 0.00 | 0.00 | 0.00 | 63 | 1013.2 |
| 20260507235405 | 19 | 166 | 1.6 | 6.4 | 0.00 | 0.00 | 0.00 | 63 | 1013.3 |
| 20260507234505 | 20 | 164 | 3.2 | 8.0 | 0.00 | 0.00 | 0.00 | 61 | 1013.4 |
| 20260507233605 | 20 | 160 | 3.2 | 8.0 | 0.00 | 0.00 | 0.00 | 59 | 1013.5 |
| 20260507232704 | 20 | 160 | 1.6 | 3.2 | 0.00 | 0.00 | 0.00 | 60 | 1013.2 |
| 20260507231804 | 20 | 160 | 1.6 | 6.4 | 0.00 | 0.00 | 0.00 | 61 | 1013.1 |
| 20260507230904 | 20 | 172 | 1.6 | 3.2 | 0.00 | 0.00 | 0.00 | 61 | 1013.2 |
| 20260507230005 | 20 | 156 | 1.6 | 6.4 | 0.00 | 0.00 | 0.00 | 60 | 1013.5 |
| 20260507225405 | 20 | 149 | 1.6 | 4.8 | 0.00 | 0.00 | 0.00 | 59 | 1013.4 |
| 20260507224505 | 20 | 165 | 1.6 | 6.4 | 0.00 | 0.00 | 0.00 | 58 | 1013.6 |
| 20260507223626 | 20 | 168 | 1.6 | 6.4 | 0.00 | 0.00 | 0.00 | 58 | 1013.4 |
| 20260507222704 | 20 | 158 | 1.6 | 6.4 | 0.00 | 0.00 | 0.00 | 58 | 1013.7 |
| 20260507221804 | 20 | 172 | 3.2 | 6.4 | 0.00 | 0.00 | 0.00 | 58 | 1013.6 |
| 20260507220905 | 20 | 167 | 3.2 | 9.7 | 0.00 | 0.00 | 0.00 | 58 | 1013.9 |
| 20260507220026 | 20 | 164 | 3.2 | 9.7 | 0.00 | 0.00 | 0.00 | 58 | 1013.9 |
| 20260507215405 | 20 | 159 | 3.2 | 8.0 | 0.00 | 0.00 | 0.00 | 58 | 1013.7 |
| 20260507214525 | 21 | 164 | 3.2 | 9.7 | 0.00 | 0.00 | 0.00 | 58 | 1013.7 |
| 20260507213625 | 21 | 153 | 3.2 | 9.7 | 0.00 | 0.00 | 0.00 | 57 | 1014.1 |
| 20260507212704 | 21 | 106 | 1.6 | 6.4 | 0.00 | 0.00 | 0.00 | 58 | 1013.9 |
| 20260507211804 | 21 | 119 | 1.6 | 3.2 | 0.00 | 0.00 | 0.00 | 58 | 1014.1 |
| 20260507210904 | 21 | 132 | 1.6 | 8.0 | 0.00 | 0.00 | 0.00 | 56 | 1014.4 |
| 20260507210005 | 21 | 154 | 1.6 | 8.0 | 0.00 | 0.00 | 0.00 | 56 | 1014.7 |
| 20260507205404 | 21 | 145 | 0.0 | 4.8 | 0.00 | 0.00 | 0.00 | 57 | 1014.7 |
| 20260507204505 | 21 | 61 | 0.0 | 4.8 | 0.00 | 0.00 | 0.00 | 56 | 1014.9 |
| 20260507203604 | 21 | 63 | 1.6 | 8.0 | 0.00 | 0.00 | 0.00 | 57 | 1014.7 |
| 20260507202725 | 21 | 81 | 1.6 | 3.2 | 0.00 | 0.00 | 0.00 | 56 | 1014.8 |
| 20260507201805 | 21 | 54 | 1.6 | 6.4 | 0.00 | 0.00 | 0.00 | 58 | 1014.6 |
| 20260507200905 | 21 | 57 | 3.2 | 12.9 | 0.00 | 0.00 | 0.00 | 59 | 1014.6 |
| 20260507200004 | 21 | 61 | 4.8 | 14.5 | 0.00 | 0.00 | 0.00 | 57 | 1014.7 |
| 20260507195404 | 21 | 53 | 3.2 | 11.3 | 0.00 | 0.00 | 0.00 | 58 | 1014.7 |
| 20260507194504 | 21 | 65 | 3.2 | 9.7 | 0.00 | 0.00 | 0.00 | 58 | 1014.8 |
| 20260507193604 | 21 | 58 | 4.8 | 12.9 | 0.00 | 0.00 | 0.00 | 58 | 1014.9 |
| 20260507192704 | 21 | 76 | 1.6 | 12.9 | 0.00 | 0.00 | 0.00 | 59 | 1015.2 |
| 20260507191826 | 21 | 56 | 3.2 | 9.7 | 0.00 | 0.00 | 0.00 | 59 | 1015.4 |
| 20260507190905 | 21 | 42 | 3.2 | 12.9 | 0.00 | 0.00 | 0.00 | 58 | 1015.8 |
| 20260507190005 | 21 | 54 | 3.2 | 12.9 | 0.00 | 0.00 | 0.00 | 60 | 1016.0 |
| 20260507185405 | 21 | 69 | 1.6 | 12.9 | 0.00 | 0.00 | 0.00 | 60 | 1016.2 |
| 20260507184504 | 21 | 339 | 1.6 | 4.8 | 0.00 | 0.00 | 0.00 | 60 | 1016.3 |
| 20260507183605 | 21 | 37 | 3.2 | 9.7 | 0.00 | 0.00 | 0.00 | 60 | 1016.2 |
| 20260507182704 | 20 | 34 | 8.0 | 19.3 | 0.00 | 0.00 | 0.00 | 61 | 1016.1 |
| 20260507181804 | 20 | 38 | 8.0 | 17.7 | 0.00 | 0.00 | 0.00 | 59 | 1015.9 |
| 20260507180904 | 20 | 55 | 8.0 | 17.7 | 0.00 | 0.00 | 0.00 | 60 | 1015.8 |
| 20260507180004 | 20 | 33 | 9.7 | 22.5 | 0.00 | 0.00 | 0.00 | 59 | 1016.1 |
| 20260507175425 | 20 | 23 | 9.7 | 17.7 | 0.00 | 0.00 | 0.00 | 61 | 1016.1 |
| 20260507174504 | 20 | 25 | 8.0 | 19.3 | 0.00 | 0.00 | 0.00 | 61 | 1016.1 |
| 20260507173625 | 20 | 11 | 9.7 | 17.7 | 0.00 | 0.00 | 0.00 | 62 | 1016.1 |
| 20260507172704 | 21 | 15 | 9.7 | 20.9 | 0.00 | 0.00 | 0.00 | 63 | 1016.5 |
| 20260507171804 | 20 | 29 | 11.3 | 20.9 | 0.00 | 0.00 | 0.00 | 65 | 1016.3 |
| 20260507170904 | 20 | 20 | 11.3 | 22.5 | 0.00 | 0.00 | 0.00 | 64 | 1016.6 |
| 20260507170005 | 20 | 23 | 8.0 | 16.1 | 0.00 | 0.00 | 0.00 | 65 | 1016.7 |
| 20260507165404 | 20 | 24 | 8.0 | 19.3 | 0.00 | 0.00 | 0.00 | 66 | 1016.8 |
| 20260507164504 | 20 | 41 | 8.0 | 17.7 | 0.00 | 0.00 | 0.00 | 66 | 1017.3 |
| 20260507163604 | 19 | 15 | 6.4 | 20.9 | 0.00 | 0.00 | 0.00 | 69 | 1017.4 |
| 20260507162704 | 18 | 30 | 6.4 | 14.5 | 0.00 | 0.00 | 0.00 | 70 | 1017.5 |
| 20260507161826 | 18 | 29 | 6.4 | 16.1 | 0.00 | 0.00 | 0.00 | 71 | 1017.8 |
| 20260507160904 | 18 | 17 | 6.4 | 14.5 | 0.00 | 0.00 | 0.00 | 73 | 1017.7 |
| 20260507160004 | 18 | 25 | 6.4 | 17.7 | 0.00 | 0.00 | 0.00 | 74 | 1017.6 |
| 20260507155404 | 17 | 38 | 6.4 | 14.5 | 0.00 | 0.00 | 0.00 | 75 | 1017.6 |
| 20260507154505 | 17 | 46 | 6.4 | 14.5 | 0.00 | 0.00 | 0.00 | 76 | 1017.6 |
| 20260507153604 | 16 | 30 | 6.4 | 16.1 | 0.00 | 0.00 | 0.00 | 77 | 1017.6 |
| 20260507152705 | 16 | 38 | 8.0 | 17.7 | 0.00 | 0.00 | 0.00 | 78 | 1017.6 |
| 20260507151804 | 16 | 25 | 8.0 | 17.7 | 0.00 | 0.00 | 0.00 | 80 | 1017.8 |
| 20260507150904 | 16 | 33 | 6.4 | 17.7 | 0.00 | 0.03 | 0.00 | 81 | 1018.0 |
| 20260507150005 | 15 | 27 | 6.4 | 14.5 | 0.00 | 0.03 | 0.00 | 82 | 1018.0 |
| 20260507145404 | 15 | 24 | 6.4 | 17.7 | 0.00 | 0.03 | 0.00 | 83 | 1018.0 |
| 20260507144525 | 15 | 13 | 6.4 | 16.1 | 0.00 | 0.03 | 0.00 | 84 | 1018.2 |
| 20260507143604 | 15 | 34 | 4.8 | 14.5 | 0.00 | 0.03 | 0.00 | 85 | 1018.1 |
| 20260507142704 | 14 | 27 | 6.4 | 12.9 | 0.00 | 0.03 | 0.00 | 86 | 1018.2 |
| 20260507141804 | 14 | 23 | 4.8 | 12.9 | 0.00 | 0.03 | 0.00 | 88 | 1018.4 |
| 20260507140904 | 13 | 359 | 6.4 | 11.3 | 0.00 | 0.03 | 0.00 | 89 | 1018.5 |
| 20260507140005 | 13 | 1 | 6.4 | 12.9 | 0.00 | 0.03 | 0.00 | 90 | 1018.2 |
| 20260507135404 | 13 | 360 | 6.4 | 12.9 | 0.00 | 0.03 | 0.00 | 90 | 1018.2 |
| 20260507134505 | 13 | 4 | 3.2 | 8.0 | 0.00 | 0.03 | 0.00 | 91 | 1018.2 |
| 20260507133604 | 13 | 8 | 3.2 | 8.0 | 0.00 | 0.03 | 0.00 | 91 | 1018.3 |
| 20260507132705 | 12 | 12 | 3.2 | 6.4 | 0.00 | 0.03 | 0.00 | 91 | 1018.4 |
| 20260507131804 | 12 | 11 | 3.2 | 6.4 | 0.00 | 0.03 | 0.00 | 91 | 1018.5 |
| 20260507130904 | 12 | 357 | 3.2 | 9.7 | 0.00 | 0.03 | 0.00 | 91 | 1018.5 |
| 20260507130004 | 12 | 350 | 3.2 | 6.4 | 0.00 | 0.03 | 0.00 | 91 | 1018.4 |
| 20260507125404 | 11 | 348 | 1.6 | 6.4 | 0.00 | 0.03 | 0.00 | 91 | 1018.4 |
| 20260507124525 | 11 | 348 | 0.0 | 4.8 | 0.00 | 0.03 | 0.00 | 90 | 1018.4 |
| 20260507123604 | 11 | 348 | 1.6 | 3.2 | 0.00 | 0.03 | 0.00 | 90 | 1018.4 |
| 20260507122705 | 11 | 348 | 0.0 | 3.2 | 0.00 | 0.03 | 0.00 | 90 | 1018.8 |
| 20260507121804 | 11 | 348 | 0.0 | 1.6 | 0.00 | 0.03 | 0.00 | 90 | 1018.8 |
| 20260507120904 | 11 | 0 | 0.0 | 0.0 | 0.00 | 0.03 | 0.00 | 89 | 1018.7 |
| 20260507120005 | 11 | 0 | 0.0 | 0.0 | 0.00 | 0.03 | 0.00 | 89 | 1018.7 |
| 20260507115404 | 11 | 0 | 0.0 | 0.0 | 0.00 | 0.03 | 0.00 | 89 | 1018.8 |
| 20260507114504 | 11 | 0 | 0.0 | 0.0 | 0.00 | 0.03 | 0.00 | 89 | 1018.6 |
| 20260507113604 | 11 | 0 | 0.0 | 0.0 | 0.00 | 0.03 | 0.00 | 89 | 1018.4 |
| 20260507112704 | 11 | 0 | 0.0 | 0.0 | 0.00 | 0.03 | 0.00 | 88 | 1018.4 |
| 20260507111825 | 11 | 0 | 0.0 | 0.0 | 0.00 | 0.03 | 0.00 | 88 | 1018.1 |
| 20260507110904 | 11 | 0 | 0.0 | 0.0 | 0.00 | 0.03 | 0.00 | 88 | 1018.0 |
| 20260507110025 | 11 | 0 | 0.0 | 0.0 | 0.00 | 0.03 | 0.00 | 88 | 1018.0 |
| 20260507105404 | 11 | 0 | 0.0 | 0.0 | 0.00 | 0.03 | 0.00 | 88 | 1017.7 |
| 20260507104505 | 11 | 0 | 0.0 | 0.0 | 0.00 | 0.03 | 0.00 | 88 | 1017.5 |
| 20260507103604 | 11 | 348 | 0.0 | 4.8 | 0.00 | 0.03 | 0.00 | 88 | 1017.1 |
| 20260507102704 | 11 | 353 | 3.2 | 8.0 | 0.00 | 0.03 | 0.00 | 88 | 1017.0 |
| 20260507101804 | 11 | 354 | 1.6 | 4.8 | 0.00 | 0.03 | 0.00 | 88 | 1016.8 |
| 20260507100904 | 11 | 358 | 3.2 | 6.4 | 0.00 | 0.03 | 0.00 | 88 | 1016.7 |
| 20260507100025 | 11 | 344 | 1.6 | 6.4 | 0.00 | 0.03 | 0.00 | 88 | 1016.6 |
| 20260507095404 | 11 | 5 | 3.2 | 9.7 | 0.00 | 0.03 | 0.00 | 88 | 1016.2 |
| 20260507094525 | 12 | 4 | 3.2 | 8.0 | 0.00 | 0.03 | 0.00 | 87 | 1016.0 |
| 20260507093604 | 12 | 9 | 3.2 | 8.0 | 0.00 | 0.03 | 0.00 | 87 | 1016.1 |
| 20260507092704 | 12 | 14 | 3.2 | 8.0 | 0.00 | 0.03 | 0.00 | 87 | 1015.9 |
| 20260507091804 | 12 | 18 | 3.2 | 8.0 | 0.00 | 0.03 | 0.00 | 87 | 1015.7 |
| 20260507090904 | 12 | 28 | 3.2 | 8.0 | 0.00 | 0.03 | 0.00 | 87 | 1015.7 |
| 20260507090005 | 12 | 39 | 1.6 | 6.4 | 0.00 | 0.03 | 0.00 | 86 | 1015.7 |
| 20260507085404 | 12 | 0 | 0.0 | 0.0 | 0.00 | 0.03 | 0.00 | 87 | 1015.9 |
| 20260507084504 | 12 | 0 | 0.0 | 0.0 | 0.00 | 0.03 | 0.00 | 86 | 1016.0 |
| 20260507083604 | 12 | 52 | 3.2 | 6.4 | 0.00 | 0.03 | 0.00 | 86 | 1015.9 |
| 20260507082704 | 12 | 35 | 6.4 | 14.5 | 0.00 | 0.03 | 0.00 | 86 | 1015.6 |
| 20260507081804 | 13 | 24 | 6.4 | 16.1 | 0.00 | 0.03 | 0.00 | 86 | 1015.3 |
| 20260507080904 | 13 | 15 | 4.8 | 11.3 | 0.00 | 0.03 | 0.00 | 86 | 1015.5 |
| 20260507080005 | 13 | 18 | 3.2 | 6.4 | 0.00 | 0.03 | 0.00 | 86 | 1015.7 |
| 20260507075404 | 13 | 19 | 4.8 | 12.9 | 0.00 | 0.03 | 0.00 | 86 | 1015.6 |
| 20260507074504 | 13 | 32 | 4.8 | 11.3 | 0.00 | 0.03 | 0.00 | 85 | 1015.5 |
| 20260507073604 | 13 | 36 | 4.8 | 11.3 | 0.00 | 0.03 | 0.00 | 85 | 1015.4 |
| 20260507072704 | 13 | 47 | 4.8 | 14.5 | 0.00 | 0.03 | 0.00 | 86 | 1015.2 |
| 20260507071825 | 13 | 41 | 4.8 | 9.7 | 0.00 | 0.03 | 0.00 | 85 | 1015.0 |
| 20260507070904 | 13 | 51 | 4.8 | 11.3 | 0.00 | 0.03 | 0.00 | 85 | 1014.8 |
| 20260507070009 | 13 | 51 | 4.8 | 12.9 | 0.00 | 0.03 | 0.00 | 85 | 1014.5 |
| 20260507065404 | 13 | 55 | 6.4 | 14.5 | 0.00 | 0.03 | 0.00 | 85 | 1014.5 |
| 20260507064504 | 14 | 58 | 6.4 | 16.1 | 0.00 | 0.03 | 0.00 | 85 | 1014.6 |
| 20260507063604 | 14 | 56 | 6.4 | 14.5 | 0.00 | 0.03 | 0.00 | 85 | 1014.6 |
| 20260507062704 | 14 | 55 | 6.4 | 14.5 | 0.00 | 0.03 | 0.00 | 85 | 1014.7 |
| 20260507061804 | 14 | 60 | 4.8 | 16.1 | 0.00 | 0.03 | 0.00 | 84 | 1014.8 |
| 20260507060904 | 14 | 58 | 6.4 | 14.5 | 0.00 | 0.03 | 0.00 | 84 | 1014.7 |
| 20260507060004 | 14 | 59 | 8.0 | 17.7 | 0.00 | 0.03 | 0.00 | 84 | 1014.8 |
| 20260507055404 | 14 | 54 | 8.0 | 17.7 | 0.00 | 0.03 | 0.00 | 85 | 1014.8 |
| 20260507054504 | 14 | 52 | 8.0 | 19.3 | 0.00 | 0.03 | 0.00 | 85 | 1014.8 |
| 20260507053604 | 14 | 57 | 6.4 | 14.5 | 0.00 | 0.03 | 0.00 | 86 | 1014.8 |
| 20260507052704 | 14 | 56 | 4.8 | 14.5 | 0.00 | 0.03 | 0.00 | 86 | 1014.8 |
| 20260507051804 | 14 | 60 | 4.8 | 14.5 | 0.00 | 0.03 | 0.00 | 86 | 1014.5 |
| 20260507050904 | 14 | 63 | 6.4 | 16.1 | 0.00 | 0.03 | 0.00 | 86 | 1014.6 |
| 20260507050005 | 14 | 62 | 6.4 | 16.1 | 0.00 | 0.03 | 0.00 | 85 | 1014.8 |
| 20260507045404 | 14 | 60 | 4.8 | 16.1 | 0.00 | 0.03 | 0.03 | 85 | 1014.9 |
| 20260507044504 | 14 | 58 | 4.8 | 14.5 | 0.00 | 0.03 | 0.03 | 85 | 1014.8 |
| 20260507043604 | 14 | 62 | 6.4 | 14.5 | 0.00 | 0.03 | 0.03 | 85 | 1014.9 |
| 20260507042704 | 14 | 64 | 6.4 | 14.5 | 0.00 | 0.03 | 0.03 | 85 | 1015.1 |
| 20260507041804 | 15 | 60 | 6.4 | 16.1 | 0.00 | 0.03 | 0.03 | 85 | 1015.0 |
| 20260507040925 | 15 | 50 | 6.4 | 16.1 | 0.00 | 0.03 | 0.03 | 85 | 1014.9 |
| 20260507040025 | 15 | 55 | 6.4 | 19.3 | 0.00 | 0.03 | 0.03 | 86 | 1015.0 |
| 20260507035404 | 15 | 51 | 6.4 | 12.9 | 0.00 | 0.03 | 0.03 | 86 | 1015.1 |
| 20260507034505 | 15 | 46 | 6.4 | 12.9 | 0.00 | 0.03 | 0.03 | 85 | 1015.1 |
| 20260507033625 | 15 | 45 | 6.4 | 12.9 | 0.00 | 0.03 | 0.03 | 85 | 1015.1 |
| 20260507032726 | 15 | 57 | 4.8 | 12.9 | 0.00 | 0.03 | 0.03 | 85 | 1015.0 |
| 20260507031825 | 15 | 41 | 6.4 | 12.9 | 0.00 | 0.03 | 0.03 | 85 | 1014.9 |
| 20260507030904 | 15 | 46 | 8.0 | 17.7 | 0.00 | 0.03 | 0.03 | 85 | 1014.9 |
| 20260507030025 | 15 | 40 | 8.0 | 17.7 | 0.00 | 0.03 | 0.03 | 85 | 1014.6 |